Other Public Products
Issued by NWS Charleston, SC

Current Version | Previous Version | Graphics & Text | Print | Product List | Glossary On
Versions: 1 2 3 4 5 6 7 8 9 10 11 12 13 14 15 16 17 18 19 20 21 22 23 24 25 26 27 28 29 30 31 32 33 34 35 36 37 38 39 40 41 42 43 44 45 46 47 48 49 50
000
FPUS82 KCHS 211940
OPUCHS

TEST...KCHS/KSAV Gateway Observations...TEST
National Weather Service Charleston SC
300 PM EDT THU SEP 21 2017

NOTE: "fair" indicates few or no clouds below 12,000 feet with no
significant weather and/or obstructions to visibility.

SCZ050-WAZ558-NCZ071-TXZ119-213-PAZ071-DCZ001-FLZ074-172-MI076-
NYZ176-178-MAZ016-IL014-TNZ027-NJZ106-GAZ044-MD014-212000-

...Gateway Observations for Charleston International...

CITY           SKY/WX    TMP DP  RH WIND       PRES   REMARKS
Chas Airport   PTSUNNY   88  73  61 S13       29.98F HX  95
Seattle        PTSUNNY   54  49  83 SW6       29.95S
Charlotte      MOSUNNY   88  62  41 VRB5      30.04F
Dallas DFW     MOSUNNY   94  71  47 S14G20    29.90F HX 101
Dallas Love    MOSUNNY   94  70  45 S14G22    29.91F HX 100
Philladelphia  PTSUNNY   86  60  41 N8        29.99S
Wash National  PTSUNNY   87  64  46 N7        30.03S
Baltimore      PTSUNNY   87  65  47 W6        30.00F
Miami          LGT RAIN  76  75  97 E3        29.93F
Detroit        MOSUNNY   88  74  63 S9        30.06F HX  96
Newark         PTSUNNY   81  62  52 NE13      29.98S
Laguardia      CLOUDY    79  65  62 NW10      29.98S
J F K          CLOUDY    80  62  54 N14       29.99S
Boston Logan   CLOUDY    72  52  49 NE24G38   30.00
Ft. Lauderdale PTSUNNY   87  77  72 NE12      29.92F HX  99
Chicago O`Hare PTSUNNY   93  62  35 S9        30.00S HX  93
Chicago Midway MOSUNNY   93  61  34 S8        30.00F HX  93
Houston Bush   CLOUDY    78  70  76 S7        29.97F
Houston Hobby  TSTM      76  73  91 S7        29.99F
Nashville      PTSUNNY   90  68  48 N7        30.06F HX  94
Atlanta        MOSUNNY   86  65  49 W3        30.04F

$$

GAZ044-118-TXZ119-213-NCZ071-DCZ001-MDZ014-506-PAZ021-071-NJZ106-
NYZ176-178-MAZ106-OHZ011-021-055-MIZ076-KYZ091-ILZ014-INZ047-
MNZ060-ONZ431-212000-

...Gateway Observations for Savannah International...

CITY           SKY/WX    TMP DP  RH WIND       PRES   REMARKS
Savannah Arpt  PTSUNNY   89  69  51 SE6       30.00F HX  93
Atlanta        MOSUNNY   86  65  49 W3        30.04F
Charlotte      MOSUNNY   88  62  41 VRB5      30.04F
Dallas DFW     MOSUNNY   94  71  47 S14G20    29.90F HX 101
Houston Bush   CLOUDY    78  70  76 S7        29.97F
Wash National  PTSUNNY   87  64  46 N7        30.03S
Wash Dulles    PTSUNNY   85  60  42 N10       30.04F
Baltimore      PTSUNNY   87  65  47 W6        30.00F
Philadelphia   PTSUNNY   86  60  41 N8        29.99S
Newark         PTSUNNY   81  62  52 NE13      29.98S
Laguardia      CLOUDY    79  65  62 NW10      29.98S
J F K          CLOUDY    80  62  54 N14       29.99S
Boston         CLOUDY    72  52  49 NE24G38   30.00
Pittsburg      MOSUNNY   84  61  45 E3        30.09F
Akron          PTSUNNY   88  60  38 CALM      30.10F
Cleveland      MOSUNNY   91  64  40 N12       30.09F HX  92
Cincinnati     MOSUNNY   87  71  58 CALM      30.08F HX  93
Columbus       SUNNY     86  65  48 E5        30.07F
Detroit        MOSUNNY   88  74  63 S9        30.06F HX  96
Chicago O`Hare PTSUNNY   93  62  35 S9        30.00S HX  93
Minneapolis    MOSUNNY   79  66  64 SE12      29.88F
Indianapolis   MOSUNNY   90  69  50 S7        30.05F HX  94
Toronto Canada MOSUNNY   81  63  54 SE8       30.11S

$$




USA.gov is the U.S. government's official web portal to all federal, state and local government web resources and services.